www.pogodaiklimat.ru

Погода и климат >> Архив погоды >> Парагвай >> Каасапа


ПОГОДА в Каасапе

  • Прогноз погоды в Каасапе
  • Монитор погоды в Каасапе

АРХИВ ПОГОДЫ в Каасапе

Время (UTC), дата Ветер
(напр.,м/с)
 
Видим.   Явления Облачность Т
(С)
Тd
(С)
f
(%)
Тe
(С)
Тes
(С)
Комфортность P
(гПа)
Po
(гПа)
Тmin
(С)
Tmax
(С)
R
(мм)
R24
(мм)
S
(см)
12 15.02 штиль 0 20 км ясно +23.8 +21.8 89 +31 +41 очень
душно
1010.1 993.8 +22.6 26
15 15.02 С 1 20 км 5/5 1200 м
[Cu hum]
+29.4 +21.6 63 +37 +49 очень
душно
1008.4 992.3
18 15.02 Ю 6 20 км 9/9 1000 м
[Cu Sc]
+27.4 +20.5 66 +34 +35 очень
душно
1009.0 992.8
21 15.02 Ю 6 20 км 4/4 1000 м
[Cu Sc]
+27.4 +19.1 61 +33 +33 очень
душно
1007.3 991.1
00 16.02 Ю 4 20 км 3/0 1500 м
[Ac und]
+24.0 +19.3 75 +29 +29 душно 1009.3 993.0 +29.4
03 16.02 ЮЗ 4 20 км 3/0 1500 м
[Ac und]
+21.0 +18.1 84 +25 +25 комфорт 1009.3 997.0
06 16.02 Ю 5 20 км 5/0 1500 м
[Ac und]
+20.0 +18.4 91 +23 +23 комфорт 1009.3 993.0
09 16.02 З 3 20 км 10/10 300 м
[St]
+20.0 +18.4 91 +23 +23 комфорт 1009.8 993.2
12 16.02 ЮЗ 4 20 км {морось} 10/10 300 м
[St]
+20.2 +19.9 98 +24 +24 комфорт 1010.5 993.9 +20.0 0.3
15 16.02 Ю 4 20 км 10/10 600 м
[Sc]
+24.6 +20.4 77 +30 +30 очень
душно
1010.2 993.9
18 16.02 ЮВ 3 20 км 5/5 630 м
[Sc]
+27.0 +19.3 63 +33 +39 очень
душно
1007.7 991.5
21 16.02 Ю 4 20 км 5/5 1000 м
[Cu Sc]
+28.0 +18.7 57 +33 +34 очень
душно
1006.4 991.3
00 17.02 Ю 2 20 км {дождь} 3/3 630 м
[Sc]
+22.6 +21.8 95 +30 +30 очень
душно
1009.1 992.8 +29.0 2
03 17.02 ЮВ 3 20 км 9/0 1500 м
[Ac und]
+22.0 +20.7 92 +28 +28 душно 1009.7 993.2
06 17.02 ЮВ 3 20 км 6/0 1500 м
[Ac und]
+21.6 +20.0 91 +27 +27 душно 1014.7 993.2
09 17.02 Ю 2 20 км {дождь} ясно +19.6 +18.9 96 +23 +23 комфорт 1009.7 993.2 1
12 17.02 Ю 4 20 км ясно +23.0 +21.4 91 +31 +36 очень
душно
1010.2 993.8 +19.6 2
15 17.02 В 4 20 км 8/8 1000 м
[Cu Sc]
+26.0 +20.0 70 +32 +35 очень
душно
1010.6 994.4
18 17.02 СВ 5 20 км 5/5 1000 м
[Cu med, cong]
+30.4 +19.3 52 +36 +40 очень
душно
1007.6 991.5
21 17.02 ЮВ 4 20 км гроза без осадков 5/5 1000 м
[Cb cap]
+30.0 +20.8 58 +37 +38 очень
душно
1006.4 990.4
00 18.02 ЮВ 6 20 км гроза без осадков 10/8 1200 м
[Cb cap Ac As]
+23.6 +22.5 94 +31 +31 очень
душно
1010.1 993.8 +31.0
06 18.02 ЮВ 3 20 км ясно +19.0 +18.9 99 +21 +21 комфорт 1008.7 992.1
09 18.02 ЮВ 3 10 км дымка ясно +19.0 +18.9 99 +21 +21 комфорт 1008.4 991.8
12 18.02 В 3 20 км ясно +21.0 +20.8 99 +27 +33 душно 1009.6 993.1 +19.0 11
15 18.02 С 4 20 км 5/5 1000 м
[Cu med, cong]
+28.8 +20.0 59 +35 +42 очень
душно
1009.5 993.4
18 18.02 З 4 20 км 5/5 1000 м
[Cu med, cong]
+31.0 +20.6 54 +38 +43 очень
душно
1006.3 990.4
21 18.02 Ю 3 20 км 4/4 1000 м
[Cb calv]
+32.4 +19.7 47 +38 +39 очень
душно
1004.4 988.6
00 19.02 С 3 20 км 8/8 600 м
[Cu Sc]
+25.0 +20.0 74 +31 +31 очень
душно
1008.3 992.0 +33.0
03 19.02 В 3 20 км {дождь} 5/0 1500 м
[Ac und]
+22.0 +20.4 91 +28 +28 душно 1007.6 991.1 1
06 19.02 В 4 20 км ясно +21.0 +20.6 98 +26 +26 душно 1007.6 991.1
09 19.02 В 3 20 км ясно +19.0 +17.8 93 +21 +21 комфорт 1007.6 991.1
12 19.02 СЗ 4 20 км ясно +25.8 +21.9 79 +33 +38 очень
душно
1009.1 992.9 +19.0 1
15 19.02 С 3 20 км 5/5 1000 м
[Cu med, cong]
+31.8 +21.5 54 +40 +48 очень
душно
1009.4 993.4
18 19.02 ЮЗ 4 20 км 8/8 1000 м
[Cu Sc]
+32.6 +21.1 51 +40 +42 очень
душно
1004.9 989.1
21 19.02 Ю 4 20 км 3/3 1000 м
[Cb calv]
+31.8 +21.6 55 +40 +41 очень
душно
1004.4 988.6
00 20.02 В 3 20 км зарница 3/1 1200 м
[Cb cap Ac und]
+28.2 +21.9 69 +36 +36 очень
душно
1006.3 990.2 +33.2
03 20.02 ЮВ 3 20 км ясно +24.0 +12.4 48 +26 +26 жарко 1008.6 992.3
06 20.02 штиль 0 20 км ясно +21.0 +19.4 91 +25 +25 комфорт 1008.8 992.3
09 20.02 штиль 0 20 км ясно +20.0 +18.6 92 +23 +23 комфорт 1009.9 993.3
12 20.02 штиль 0 20 км ясно +26.0 +22.9 83 +35 +44 очень
душно
1010.5 994.3 +20.0
15 20.02 ЮЗ 4 20 км 5/5 1000 м
[Cu med, cong]
+31.0 +23.9 66 +43 +49 опасность
перегрева
1011.3 995.3
18 20.02 Ю 3 20 км 4/4 1000 м
[Cu med, cong]
+33.6 +22.3 52 +43 +50 опасность
перегрева
1007.4 991.6
21 20.02 В 4 20 км 1/1 1000 м
[Cu med, cong]
+34.0 +19.0 41 +39 +40 очень
душно
1004.5 988.8
00 21.02 ЮВ 3 20 км ясно +28.0 +20.3 63 +34 +34 очень
душно
1006.5 990.4 +34.4
03 21.02 ЮВ 3 20 км ясно +26.0 +21.5 76 +33 +33 очень
душно
1009.4 993.2
09 21.02 В 3 20 км ясно +23.0 +22.0 94 +31 +31 очень
душно
1004.8 993.4
12 21.02 С 3 20 км ясно +27.4 +21.0 68 +34 +40 очень
душно
1011.4 995.1 +23.0
15 21.02 В 4 20 км ясно +33.0 +20.9 49 +40 +53 опасность
солнечного
удара
1009.8 994.0
18 21.02 Ю 4 20 км 5/5 1000 м
[Cu med, cong]
+34.6 +21.9 48 +43 +48 опасность
перегрева
1008.6 992.4
21 21.02 Ю 3 20 км 1/1 1000 м
[Cb calv]
+34.8 +22.0 47 +43 +44 опасность
перегрева
1006.6 990.1
00 22.02 штиль 0 20 км ясно +28.8 +24.1 76 +40 +40 очень
душно
1009.5 993.4 +35.5
03 22.02 ЮВ 2 20 км ясно +28.0 +22.1 70 +36 +36 очень
душно
1009.7 993.6
06 22.02 В 3 20 км ясно +24.0 +19.4 75 +29 +29 душно 1009.7 993.4

 

Местоположение метеостанции Каасапа (Парагвай): широта -26.18 долгота -56.35 высота над уровнем моря 500 м.

В архиве по умолчанию представлена погода в Каасапе за последнюю неделю. Архивные данные за месяц целиком и за предыдущие месяцы, начиная с января 2011 года, Вы можете получить, выбрав интересующий диапазон дат из раскрывающегося списка и нажав кнопку "Ввод!".


*Определитесь, кто Вы:
робот инопланетянин человек

Внимание! Время в таблицах - всемирное. Для получения местного времени необходимо прибавить поправку, которая равна -4 ч.

Смотрите также архив погоды в соседних городах и на ближайших метеорологических станциях:

Погода в Вильяррике (Парагвай) (48 км)
Погода в Куйкуйо (Парагвай) (63 км)
Погода в Коронель-Овьедо (Парагвай) (81 км)
Погода в Сан Хуан Батистута (Парагвай) (96 км)
Погода в Парагуари (Парагвай) (99 км)
Погода в Энкарнасьоне (Парагвай) (136 км)
Погода в Посадасе (Аргентина) (137 км)
Погода в Капитан Меса (Парагвай) (142 км)
Погода в Асунсьоне (Парагвай) (156 км)
Погода в Сан Эстанислао (Парагвай) (170 км)

Пояснения к столбцам:

Ветер - указаны скорость ветра в м/с - средняя за 10 мин, порывы в срок и между сроками (в фигурных скобках) и направление, откуда дует ветер: С - северный, СВ - северо-восточный, В - восточный, ЮВ - юго-восточный, Ю - южный, ЮЗ - юго-западный, З - западный, СЗ - северо-западный.
Видимость - горизонтальная дальность видимости в метрах или километрах. При видимости от 1 до 10 км при отсутствии осадков обычно наблюдается дымка, при ухудшении видимости до 1 км и менее - туман. В сухую погоду видимость может ухудшаться дымом, пылью или мглою.
Явления - указаны атмосферные явления, наблюдавшиеся в срок или в последний час перед сроком; фигурными скобками обозначены явления, наблюдавшиеся между сроками (за 1-3 часа до срока); квадратными скобками обозначены град или гололедные отложения с указанием их диаметра в мм.
Облачность - указаны через наклонную черту общая и нижняя облачность в баллах и высота нижней границы облаков в метрах; квадратными скобками обозначены формы облаков: Ci - перистые, Cs - перисто-слоистые, Cc - перисто-кучевые, Ac - высококучевые, As - высокослоистые, Sc - слоисто-кучевые, Ns - слоисто-дождевые, Cu - кучевые, Cb - кучево-дождевые. Подробнее классификацию облаков см. в Атласе облаков (PDF).
T - Температура воздуха - температура, измеренная на высоте 2 м над землей.
Td - Температура точки росы - температура, при понижении до которой содержащийся в воздухе водяной пар достигнет насыщения.
f - Относительная влажность воздуха - влажноcть воздуха, измеренная на высоте 2 м над землей.
Te - Эффективная температура - температура, которую ощущает одетый по сезону человек в тени. Характеристика душности погоды. При расчете учитывается влияние влажности воздуха и скорости ветра на теплоощущения человека.
Tes - Эффективная температура на солнце - температура, которую ощущает человек, с поправкой на солнечный нагрев. Характеристика знойности погоды. Зависит от высоты солнца над горизонтом, облачности и скорости ветра. Ночью, в пасмурную погоду, а также при ветре 12 м/с и более поправка равна нулю.
P - Атмосферное давление - приведенное к уровню моря атмосферное давление.
Po - Атмосферное давление - измеренное на уровне метеостанции атмосферное давление.
Tmin - Минимальная температура - минимум температуры воздуха на высоте 2 м над землей.
Tmax - Максимальная температура - максимум температуры воздуха на высоте 2 м над землей.
R - Количество осадков - Количество выпавших осадков за период времени, мм. При наведении курсора мыши на число - период времени, за который выпало указанное количество осадков.
R24 - Количество осадков - Количество выпавших осадков за 24 часа, мм.
S - Снежный покров - Высота снежного покрова, см. При наведении курсора мыши на число - состояние снежного покрова и степень покрытия местности в баллах.